ROMMA est une association bénévole à but non lucratif. Votre soutien est indispensable : ADHERER à ROMMA ou FAIRE un DON

Chambon - (38, Isère)

Oisans (2460 m)   Longitude: 06° 10' 42" E   Latitude: 45° 01' 32" N Station partenaire n°803
 

Détail journalier du     <<     >>

Température Humidité Vent Dir Rafale Dir. rafale Neige 1 Neige 2
Heure (°C) (%) (km/h) (km/h) (cm) (cm)
01:00 -0.5838N24N095
02:00 -0.3815NNE19NNO094
03:00 0.1774NO20NNO094
04:00 0.1754OSO11ONO094
05:00 0.3753NE7NE094
06:00 0.4753SSO7O094
07:00 0.0792N9N094
08:00 0.5762OSO14OSO094
09:00 0.9734OSO14OSO094
10:00 1.0744OSO12OSO094
11:00 2.06810SSO21SSO094
12:00 2.3698N17SSO094
13:00 2.8653N9OSO094
14:00 2.7685OSO12OSO093
15:00 2.3708SO13SO093
16:00 1.3764ENE10SSO093
17:00 0.5833ENE9SO093
18:00 0.1856SO12SO093
19:00 -0.1875NE12SO093
20:00 -0.2883NE9SSE093
21:00 0.3857SSE25SO093
22:00 0.48515SO25SO093
23:00 0.08713OSO21OSO093
minuit -0.79310OSO17OSO093

Graphique du 25-11-2019

 

Serveur OMMA